Regional Weather Roundup
Issued by NWS

Home | Current Version | Previous Version | Text Only | Print | Product List | Glossary Off
Versions: 1 2 3 4 5 6 7 8 9 10 11 12 13 14 15 16 17 18 19 20 21 22 23 24 25 26 27 28 29 30 31 32 33 34 35 36 37 38 39 40 41 42 43 44 45 46 47 48 49 50

000
ASUS43 KBIS 231310
RWRND

NORTH DAKOTA REGIONAL WEATHER ROUNDUP
NATIONAL WEATHER SERVICE BISMARCK ND
800 AM CDT SUN APR 23 2017

NOTE: "FAIR" INDICATES FEW OR NO CLOUDS BELOW 12,000 FEET WITH NO
SIGNIFICANT WEATHER AND/OR OBSTRUCTIONS TO VISIBILITY.


NDZ001>003-009>011-017-231400-
NORTHWEST NORTH DAKOTA

CITY           SKY/WX    TMP DP  RH WIND       PRES   REMARKS
WILLISTON      CLOUDY    33  26  75 E16G28    30.05S
MINOT          LGT SNOW  29  19  66 E18G25    30.13S WCI  16
MINOT AFB      CLOUDY    29  18  64 E17       30.13S WCI  17
$$

NDZ018>021-031>035-040>046-231400-
SOUTHWEST NORTH DAKOTA

CITY           SKY/WX    TMP DP  RH WIND       PRES   REMARKS
BISMARCK       CLOUDY    33  27  78 E21G29    30.08R
DICKINSON      CLOUDY    31  29  92 E21G30    29.94F FOG     WCI  18
GARRISON         N/A     27  24  89 E21       30.09F WCI  13
HETTINGER ARPT FOG       32  31  96 E20G25    29.94S VSB 1/2
$$

NDZ004>008-012>016-024-026-027-054-231400-
NORTHEAST NORTH DAKOTA

CITY           SKY/WX    TMP DP  RH WIND       PRES   REMARKS
GRAND FORKS    CLOUDY    33  25  72 E12       30.21F
GRND FRKS AFB  CLOUDY    31  22  70 E10       30.21F
DEVILS LAKE    CLOUDY    29  21  72 E16G22    30.18S WCI  17
$$

NDZ022-023-025-028>030-036>039-047>053-231400-
SOUTHEAST NORTH DAKOTA

CITY           SKY/WX    TMP DP  RH WIND       PRES   REMARKS
FARGO          CLOUDY    34  31  88 NE18      30.15S
JAMESTOWN      CLOUDY    29  26  89 E15       30.12S WCI  18
$$





USA.gov is the U.S. government's official web portal to all federal, state and local government web resources and services.